SCP
0 0 0 0 0 0 0 0 0 0 0 0 0 0 0 0 0 0 0 0 0 0 0 0 0 0 0 0 0 0 0 0 0 0 0 0 0 0 0 0 0 0 0 0 0 0 0
0 0 0 0 0 0 0 0 0 0 0 0 0 0 0 0 0 0 0 0 0 0 0 0 0 0 0 0 0 0 0 0 0 0 0 0 0 0 0 0 0 0 0 0 0 0 0
0 0 0 0 0 0 0 0 0 0 0 0 0 0 0 0 0 0 0 0 0 0 0 0 0 0 0 0 0 0 0 0 0 0 0 0 0 0 0 0 0 0 0 0 0 0 0
0 0 0 0 0 0 0 0 0 0 0 0 0 0 0 0 -0 0 0 0 0 0 0 0 0 0 0 0 0 0 0 0 0 0 0 0 0 0 0 0 0 0 0 0 0 0 0
0 0 0 0 0 0 0 0 0 0 0 0 0 0 0 0 0 0 0 0 0 0 0 0 0 0 0 0 0 0 0 0 0 0 0 0 0 0 0 0 0 0 0 0 0 0 0
0 0 0 0 0 0 0 0 0 0 0 0 0 0 0 0 0 0 0 0 0 0 0 0 0 0 0 0 0 0 0 0 0 0 0 0 0 0 0 0 0 0 0 0 0 0 0
0 0 0 0 0 0 0 0 0 0 0 0 0 0 0 0 0 0 0 0 0 0 0 0 0 0 0 0 0 0 0 0 0 0 0 0 0 0 0 0 0 0 0 0 0 0 0
0 0 0 0 0 0 0 0 0 0 0 0 0 0 0 0 0 0 0 0 0 0 0 0 0 0 0 0 0 0 0 0 0 0 0 0 0 0 0 0 0 0 0 0 -0 0 0
0 0 0 0 0 0 0 0 0 0 0 0 0 0 0 0 0 0 0 0 0 0 0 0 0 0 0 0 0 0 0 0 0 0 0 0 0 0 0 0 0 0 0 0 0 0 0
0 0 0 0 0 0 0 0 0 0 0 0 0 0 0 0 0 0 0 0 0 0 0 0 0 0 0 0 0 0 0 0 0 0 -0 0 0 0 0 0 0 0 0 0 0 0 0
0 0 0 0 0 0 0 0 0 0 0 0 0 0 0 0 0 0 0 0 0 0 0 0 0 0 0 0 0 0 0 0 0 0 0 0 0 0 0 0 0 0 0 0 0 0 -0
0 0 0 0 0 0 0 0 0 0 0 0 0 0 0 0 0 0 0 0 0 0 0 0 0 0 0 0 0 0 0 0 0 0 0 0 0 0 0 0 0 0 0 0 0 0 0
0 0 0 0 0 0 0 0 0 0 0 0 0 0 0 0 0 0 0 0 0 0 0 0 0 0 0 0 0 0 0 0 -0 0 0 0 0 0 0 0 -0 0 0 0 0 0 0
0 0 0 0 0 0 0 0 0 0 0 0 0 0 0 0 0 0 0 0 0 0 0 0 0 0 0 0 0 0 0 0 0 0 0 0 0 0 0 0 0 0 0 0 0 0 -0
0 0 0 0 0 0 0 0 0 0 0 0 0 0 0 0 0 0 0 0 0 0 0 0 0 0 0 0 0 0 0 0 0 0 0 0 0 0 0 0 0 0 0 0 0 0 0
0 0 0 0 0 0 0 0 0 0 0 0 0 0 0 0 0 0 0 0 0 0 0 0 0 0 0 0 0 0 0 0 0 0 0 0 0 0 0 0 0 0 0 0 0 0 0
0 0 0 0 0 0 0 0 0 0 0 0 0 0 0 0 0 0 0 0 0 0 0 0 0 0 0 0 0 0 0 0 0 0 0 0 0 0 0 0 0 0 0 0 0 0 0
0 0 0 0 0 0 0 0 0 0 0 0 0 0 0 0 0 0 0 0 0 0 0 0 0 0 0 0 0 0 0 0 0 0 0 0 0 0 0 0 0 0 0 0 0 0 0
0 0 0 0 0 0 0 0 0 0 0 0 0 0 0 0 0 0 0 0 0 0 0 0 0 0 0 0 0 0 0 0 0 0 0 0 0 0 0 0 0 0 0 0 0 0 0
0 0 0 0 0 0 0 0 0 0 0 0 0 0 0 0 0 0 0 0 0 0 0 0 0 0 0 0 0 0 0 0 0 0 0 0 0 0 0 0 0 0 0 0 0 0 0
0 0 0 0 0 0 0 0 0 0 0 0 0 0 0 0 0 0 0 0 0 0 0 0 0 0 0 0 0 0 0 0 0 0 0 0 0 0 0 0 0 0 0 0 0 0 0
0 0 0 0 0 0 0 0 0 0 0 0 0 0 0 0 0 0 0 0 0 0 0 0 0 0 0 0 0 0 0 0 0 0 0 0 0 0 0 0 0 0 0 0 0 0 0
0 0 0 0 0 0 0 0 0 0 0 0 0 0 0 0 0 0 0 0 0 0 0 0 0 0 0 0 0 0 0 0 0 0 0 0 0 0 0 0 0 0 0 0 0 0 0
0 0 0 0 0 0 0 0 0 0 0 0 0 0 0 0 0 0 0 0 0 0 0 0 0 0 0 0 0 0 0 0 0 0 0 0 0 0 0 0 0 0 0 0 0 0 0
0 0 0 0 0 0 0 0 0 0 0 0 0 0 0 0 0 0 0 0 0 0 0 0 0 0 0 0 0 0 0 0 0 0 0 0 0 0 0 0 0 0 0 0 0 0 0
0 0 0 0 0 0 0 0 0 0 0 0 0 0 0 0 0 0 0 0 0 0 0 0 0 0 0 0 0 0 -0 0 0 0 0 0 0 0 0 0 0 0 0 0 0 0 0
0 0 0 0 0 0 0 0 0 0 0 0 0 0 0 0 0 0 0 0 0 0 0 0 0 -0 0 -0 0 0 0 0 0 0 0 0 0 0 0 0 0 0 0 0 0 0 0
0 0 0 0 0 0 0 0 0 0 0 0 0 0 0 0 0 0 0 0 0 0 0 0 -0 -0 -0 0 0 0 0 0 0 0 0 0 0 0 0 0 0 -0 0 -0 -0 -0 0
0 0 0 0 0 0 0 0 0 0 0 0 0 0 0 0 0 0 0 0 0 0 0 -0 -0 -0 -0 0 -0 -0 0 -0 0 0 0 0 0 0 0 0 0 0 0 -0 -0 -0 0
Wind_Speed_500mb
4 5 5 4 3 4 7 9 12 14 16 20 25 29 33 37 40 44 49 48 56 59 45 37 29 39 14 7 7 15 30 30 28 34 31 27 22 8 5 8 13 18 17 28 30 27 40
7 7 8 7 4 5 6 9 12 15 18 21 27 31 34 38 44 48 46 53 59 50 39 27 33 23 6 4 10 20 37 32 38 34 28 27 19 24 21 14 12 11 17 25 34 42 43
9 10 10 7 7 5 7 9 12 16 20 23 28 32 37 42 46 51 45 57 62 43 32 23 32 20 4 5 17 31 46 38 25 23 29 29 26 19 9 10 31 24 24 32 32 44 24
12 12 12 10 10 8 8 10 12 17 20 25 30 35 39 45 50 53 48 59 53 41 14 32 16 20 6 17 23 55 38 38 26 34 30 21 20 30 25 21 10 10 10 14 4 5 14
16 15 14 13 12 11 11 12 13 17 21 26 31 36 41 48 55 55 51 58 36 21 23 14 13 9 4 19 53 44 33 36 43 21 25 22 15 11 7 5 8 9 16 23 29 14 15
20 18 16 15 14 12 13 13 14 17 22 27 32 37 43 51 56 55 58 56 28 6 14 4 12 8 9 33 60 30 30 41 32 28 18 6 4 3 3 3 10 19 30 30 35 11 18
23 20 19 17 16 14 14 14 15 17 22 27 32 37 43 51 55 49 65 37 23 4 11 8 9 6 20 41 46 36 41 45 10 6 6 7 4 11 20 16 27 29 34 46 45 34 32
23 22 22 19 19 17 16 15 15 18 22 27 31 38 43 50 52 42 56 33 20 14 14 7 12 18 28 33 22 40 49 23 12 10 8 7 11 14 11 15 27 27 36 44 42 24 22
24 23 25 22 20 19 17 17 16 18 22 27 31 37 42 48 41 47 48 43 26 9 6 9 12 14 22 38 8 41 52 25 5 9 15 8 16 19 20 23 21 27 25 37 38 34 20
31 27 26 26 22 19 19 17 16 18 22 26 31 36 42 47 23 45 37 42 20 6 8 11 12 10 42 32 5 20 53 14 9 9 13 12 7 23 25 11 15 21 8 20 25 22 11
32 31 28 27 24 21 20 18 16 19 22 25 29 35 42 43 32 40 42 35 10 3 10 20 11 14 49 14 24 11 39 14 7 15 6 12 22 25 8 20 28 18 28 33 37 29 25
34 31 30 29 26 23 21 18 17 19 21 25 28 34 38 39 32 43 40 25 4 12 9 14 11 18 18 11 15 23 22 27 5 9 7 24 12 3 6 33 26 29 23 40 17 11 8
34 33 34 32 28 25 22 19 19 19 21 25 27 33 37 33 34 42 37 11 10 14 12 21 11 15 15 12 12 14 11 16 12 15 31 16 10 8 7 21 16 34 29 8 9 3 9
33 34 31 34 30 26 24 20 20 20 21 23 27 32 35 25 37 36 28 10 18 7 11 8 13 21 9 17 8 21 13 13 13 7 10 11 16 14 15 4 19 28 16 8 11 7 14
37 34 35 33 32 28 25 21 20 21 22 23 26 31 27 23 36 28 9 12 13 12 5 14 20 8 11 10 5 17 12 8 8 13 13 10 11 5 16 10 18 18 15 32 11 20 8
39 37 35 31 33 30 26 22 20 21 21 22 26 28 8 27 28 18 10 4 4 5 5 9 2 4 6 12 17 19 12 7 15 18 20 6 13 7 12 13 9 19 23 9 6 8 9
45 41 35 33 25 30 27 23 21 20 19 21 25 13 9 29 19 8 7 11 8 6 2 5 6 8 7 8 5 8 9 10 12 14 20 6 4 15 9 12 27 20 17 8 10 6 6
50 43 36 32 29 24 28 23 21 19 16 17 12 6 15 21 7 7 4 10 4 3 2 2 6 6 7 6 6 6 7 5 26 26 16 6 6 9 10 7 16 19 27 9 5 9 7
54 49 41 37 34 30 27 25 22 19 14 13 11 7 10 15 6 5 7 4 5 1 2 1 5 6 2 3 6 6 7 10 20 14 10 14 7 11 18 3 15 15 44 36 4 7 25
59 54 50 42 35 33 30 28 26 20 14 8 6 5 5 12 14 9 2 4 8 2 6 6 6 4 6 9 4 9 8 8 41 10 28 5 5 4 4 12 7 35 44 42 25 6 11
53 61 56 52 42 39 34 31 30 23 16 8 1 0 0 3 6 6 3 5 4 8 7 5 3 4 6 4 8 5 7 13 11 22 15 7 3 7 11 6 1 26 31 40 36 24 12
59 49 59 56 49 45 39 36 34 28 21 15 3 6 5 8 4 2 4 4 2 5 7 5 7 6 9 9 12 8 7 5 5 18 13 9 6 9 8 7 8 19 43 37 34 28 13
58 55 62 63 56 51 45 39 38 33 29 13 12 10 2 2 4 5 6 7 6 3 10 14 10 6 4 14 18 28 30 30 23 12 14 10 9 10 11 13 9 9 38 21 21 29 12
56 64 57 60 60 56 53 48 42 37 32 24 12 10 6 5 3 7 7 6 6 9 5 9 10 6 5 25 24 3 5 9 11 17 18 11 10 5 7 14 16 9 21 6 11 39 37
67 69 63 56 65 66 59 54 48 42 35 35 21 12 6 2 6 6 9 6 10 9 5 9 8 10 29 11 7 9 8 8 7 9 5 14 3 7 7 4 2 5 15 13 11 20 34
59 71 64 42 60 68 61 59 54 50 47 38 31 22 8 5 9 6 6 3 4 3 9 7 7 14 14 6 8 7 4 8 13 21 4 5 8 7 9 10 9 7 10 19 5 19 41
57 55 63 62 57 55 67 64 59 55 50 43 34 28 16 6 7 12 5 5 3 1 4 7 13 10 16 5 7 5 1 4 5 5 12 10 9 9 6 3 10 6 37 4 10 2 22
66 67 64 63 59 60 65 69 65 61 56 48 41 31 26 9 11 10 8 6 3 2 4 6 4 7 8 8 5 5 5 6 2 5 5 2 4 2 3 8 8 34 6 12 6 6 6
75 70 69 61 63 58 72 74 74 68 61 54 47 39 32 14 7 11 11 9 6 6 1 7 7 1 6 7 2 5 3 2 5 2 1 2 9 6 9 8 4 10 15 11 10 6 1
Wind_Direction_500mb
268 295 302 308 343 356 11 7 3 356 352 348 347 349 349 351 348 346 342 336 335 332 329 330 331 336 354 92 56 1 346 330 317 318 312 298 304 272 238 253 285 247 260 264 270 289 287
267 274 281 292 306 334 346 355 351 348 342 343 342 346 348 349 346 344 341 336 336 333 331 330 338 348 5 101 353 344 343 328 316 310 301 286 274 288 270 232 206 242 273 278 288 281 273
258 267 270 282 291 303 319 337 341 339 341 340 341 344 348 347 344 342 344 338 334 334 335 345 340 349 143 93 348 336 336 333 328 312 303 302 287 257 252 274 277 276 282 284 266 263 257
255 257 266 274 279 291 302 317 334 336 337 337 340 344 347 343 342 343 345 340 332 335 343 345 350 340 119 360 350 340 332 330 329 313 303 305 282 261 241 261 290 281 255 283 136 181 246
253 256 261 266 270 283 295 309 328 328 332 336 340 343 344 342 342 343 344 344 335 343 340 354 1 356 76 350 340 349 344 333 324 333 317 297 290 238 231 257 298 195 267 264 294 239 252
253 254 258 263 269 278 289 304 318 323 328 334 338 342 344 342 341 341 345 347 338 358 1 10 1 359 1 331 335 352 354 339 319 325 319 308 259 250 296 132 276 287 287 284 283 282 270
252 256 257 261 266 273 282 295 307 315 325 330 337 341 345 342 342 342 346 356 354 312 14 14 354 278 300 334 338 0 358 338 324 302 321 307 295 253 274 244 257 273 281 284 280 283 279
251 258 256 256 262 268 275 288 302 314 321 326 334 342 344 343 341 345 346 26 18 321 316 326 332 331 331 326 319 355 355 354 339 318 313 330 256 270 287 283 285 283 282 280 282 284 276
248 255 254 254 258 265 274 284 297 311 315 324 336 340 344 344 341 344 357 10 4 327 287 314 329 328 344 328 309 343 354 335 293 318 319 265 274 311 333 314 291 282 271 282 279 307 262
249 247 251 254 256 262 268 277 291 303 310 322 334 340 343 348 345 346 353 353 354 41 58 314 350 360 349 338 308 352 354 339 341 311 317 271 286 321 316 307 350 301 312 291 288 306 296
244 238 244 249 253 257 263 273 286 297 307 318 330 338 342 349 339 345 343 344 354 352 31 318 334 350 354 57 302 330 354 352 329 311 49 274 310 331 313 327 332 267 292 284 278 270 289
252 239 240 245 249 253 260 268 277 289 302 315 327 334 341 339 339 341 344 344 359 39 305 341 355 349 5 334 334 325 356 5 329 324 238 292 298 5 277 317 301 275 294 294 269 243 250
260 248 238 240 244 248 255 261 271 285 299 311 324 332 337 333 337 339 342 349 31 93 359 315 331 351 346 313 310 18 353 19 31 358 348 330 334 314 322 329 319 333 335 314 349 8 228
250 253 245 240 240 244 251 256 268 281 294 306 323 329 331 325 337 339 340 48 56 239 248 339 331 320 358 344 341 341 8 360 46 6 320 6 329 19 319 262 309 321 332 319 310 313 313
245 252 248 253 238 240 247 253 262 274 288 307 319 328 327 327 335 340 353 47 199 205 267 329 322 17 321 346 313 358 12 323 43 360 2 327 281 269 295 311 31 317 337 304 254 259 238
241 247 249 256 242 233 241 247 255 271 289 307 322 330 321 333 340 343 66 222 191 234 2 53 325 90 307 322 353 4 351 325 350 3 344 287 295 316 311 10 23 346 348 348 339 316 325
235 240 246 243 249 235 236 243 251 264 286 311 328 338 337 340 343 14 107 222 261 278 107 123 248 299 274 303 314 316 298 307 24 316 322 295 185 297 11 9 345 6 358 316 290 272 336
234 237 237 241 239 240 237 237 245 259 282 307 335 4 334 348 8 50 113 188 261 322 95 288 229 226 208 313 316 301 304 276 348 329 334 333 273 289 256 270 14 29 2 337 264 28 320
232 233 235 236 236 232 232 231 236 246 265 301 318 293 340 3 87 325 316 283 267 80 256 248 276 177 95 265 348 243 288 272 349 334 336 352 331 329 349 334 10 21 11 6 358 354 14
230 232 232 230 230 230 227 229 230 230 246 280 322 5 26 65 83 121 106 319 321 284 259 238 267 48 26 1 290 291 306 314 333 340 358 1 295 309 294 263 325 10 17 21 24 26 319
241 237 232 227 223 221 225 223 224 222 218 237 29 198 138 316 11 93 104 153 320 5 234 223 294 168 153 332 314 286 286 303 327 4 359 46 325 335 280 235 289 23 20 20 28 8 37
244 238 237 227 221 215 216 223 217 215 210 211 214 179 127 99 101 121 285 238 271 303 222 273 173 191 191 190 188 270 349 346 327 332 343 4 317 6 295 309 278 5 22 23 23 12 8
235 223 235 230 218 213 211 216 218 209 204 201 205 210 222 83 92 79 219 179 214 158 239 245 256 140 187 234 240 268 268 265 277 307 327 344 327 7 310 334 345 356 10 15 32 30 341
226 229 234 228 220 214 209 211 215 209 209 216 204 184 162 273 121 214 193 201 225 218 245 298 278 154 220 303 306 88 168 235 249 273 248 306 332 58 284 356 37 354 20 348 14 31 20
217 219 241 222 224 215 209 209 211 202 210 216 215 208 203 188 209 241 222 231 280 271 237 247 277 274 307 314 52 29 348 25 322 272 303 206 296 52 65 50 204 9 4 350 360 29 18
220 223 219 229 236 220 210 208 209 203 202 215 216 215 216 147 244 177 156 190 242 294 335 245 288 320 349 55 61 87 40 214 327 340 270 47 47 92 29 79 26 242 328 317 261 40 17
227 218 225 216 224 231 217 209 208 205 203 209 215 210 210 227 199 176 161 175 187 123 215 308 336 354 11 33 63 98 225 208 37 3 330 345 8 71 23 73 292 280 317 344 58 231 19
225 221 224 220 222 227 219 212 208 204 207 208 208 210 206 217 191 199 193 172 213 229 134 342 16 6 39 56 105 216 121 212 77 235 151 27 14 316 75 52 344 357 338 101 177 114 34
221 225 221 219 221 222 221 216 208 205 208 208 203 205 207 220 160 201 201 214 221 233 320 18 110 57 125 88 15 95 90 70 147 263 263 346 172 185 171 204 260 360 79 106 134 168 144
Wind_Speed_850mb
4 5 5 4 3 4 7 9 12 14 16 20 25 29 33 37 40 44 49 48 56 59 45 37 29 39 14 7 7 15 30 30 28 34 31 27 22 8 5 8 13 18 17 28 30 27 40
7 7 8 7 4 5 6 9 12 15 18 21 27 31 34 38 44 48 46 53 59 50 39 27 33 23 6 4 10 20 37 32 38 34 28 27 19 24 21 14 12 11 17 25 34 42 43
9 10 10 7 7 5 7 9 12 16 20 23 28 32 37 42 46 51 45 57 62 43 32 23 32 20 4 5 17 31 46 38 25 23 29 29 26 19 9 10 31 24 24 32 32 44 24
12 12 12 10 10 8 8 10 12 17 20 25 30 35 39 45 50 53 48 59 53 41 14 32 16 20 6 17 23 55 38 38 26 34 30 21 20 30 25 21 10 10 10 14 4 5 14
16 15 14 13 12 11 11 12 13 17 21 26 31 36 41 48 55 55 51 58 36 21 23 14 13 9 4 19 53 44 33 36 43 21 25 22 15 11 7 5 8 9 16 23 29 14 15
20 18 16 15 14 12 13 13 14 17 22 27 32 37 43 51 56 55 58 56 28 6 14 4 12 8 9 33 60 30 30 41 32 28 18 6 4 3 3 3 10 19 30 30 35 11 18
23 20 19 17 16 14 14 14 15 17 22 27 32 37 43 51 55 49 65 37 23 4 11 8 9 6 20 41 46 36 41 45 10 6 6 7 4 11 20 16 27 29 34 46 45 34 32
23 22 22 19 19 17 16 15 15 18 22 27 31 38 43 50 52 42 56 33 20 14 14 7 12 18 28 33 22 40 49 23 12 10 8 7 11 14 11 15 27 27 36 44 42 24 22
24 23 25 22 20 19 17 17 16 18 22 27 31 37 42 48 41 47 48 43 26 9 6 9 12 14 22 38 8 41 52 25 5 9 15 8 16 19 20 23 21 27 25 37 38 34 20
31 27 26 26 22 19 19 17 16 18 22 26 31 36 42 47 23 45 37 42 20 6 8 11 12 10 42 32 5 20 53 14 9 9 13 12 7 23 25 11 15 21 8 20 25 22 11
32 31 28 27 24 21 20 18 16 19 22 25 29 35 42 43 32 40 42 35 10 3 10 20 11 14 49 14 24 11 39 14 7 15 6 12 22 25 8 20 28 18 28 33 37 29 25
34 31 30 29 26 23 21 18 17 19 21 25 28 34 38 39 32 43 40 25 4 12 9 14 11 18 18 11 15 23 22 27 5 9 7 24 12 3 6 33 26 29 23 40 17 11 8
34 33 34 32 28 25 22 19 19 19 21 25 27 33 37 33 34 42 37 11 10 14 12 21 11 15 15 12 12 14 11 16 12 15 31 16 10 8 7 21 16 34 29 8 9 3 9
33 34 31 34 30 26 24 20 20 20 21 23 27 32 35 25 37 36 28 10 18 7 11 8 13 21 9 17 8 21 13 13 13 7 10 11 16 14 15 4 19 28 16 8 11 7 14
37 34 35 33 32 28 25 21 20 21 22 23 26 31 27 23 36 28 9 12 13 12 5 14 20 8 11 10 5 17 12 8 8 13 13 10 11 5 16 10 18 18 15 32 11 20 8
39 37 35 31 33 30 26 22 20 21 21 22 26 28 8 27 28 18 10 4 4 5 5 9 2 4 6 12 17 19 12 7 15 18 20 6 13 7 12 13 9 19 23 9 6 8 9
45 41 35 33 25 30 27 23 21 20 19 21 25 13 9 29 19 8 7 11 8 6 2 5 6 8 7 8 5 8 9 10 12 14 20 6 4 15 9 12 27 20 17 8 10 6 6
50 43 36 32 29 24 28 23 21 19 16 17 12 6 15 21 7 7 4 10 4 3 2 2 6 6 7 6 6 6 7 5 26 26 16 6 6 9 10 7 16 19 27 9 5 9 7
54 49 41 37 34 30 27 25 22 19 14 13 11 7 10 15 6 5 7 4 5 1 2 1 5 6 2 3 6 6 7 10 20 14 10 14 7 11 18 3 15 15 44 36 4 7 25
59 54 50 42 35 33 30 28 26 20 14 8 6 5 5 12 14 9 2 4 8 2 6 6 6 4 6 9 4 9 8 8 41 10 28 5 5 4 4 12 7 35 44 42 25 6 11
53 61 56 52 42 39 34 31 30 23 16 8 1 0 0 3 6 6 3 5 4 8 7 5 3 4 6 4 8 5 7 13 11 22 15 7 3 7 11 6 1 26 31 40 36 24 12
59 49 59 56 49 45 39 36 34 28 21 15 3 6 5 8 4 2 4 4 2 5 7 5 7 6 9 9 12 8 7 5 5 18 13 9 6 9 8 7 8 19 43 37 34 28 13
58 55 62 63 56 51 45 39 38 33 29 13 12 10 2 2 4 5 6 7 6 3 10 14 10 6 4 14 18 28 30 30 23 12 14 10 9 10 11 13 9 9 38 21 21 29 12
56 64 57 60 60 56 53 48 42 37 32 24 12 10 6 5 3 7 7 6 6 9 5 9 10 6 5 25 24 3 5 9 11 17 18 11 10 5 7 14 16 9 21 6 11 39 37
67 69 63 56 65 66 59 54 48 42 35 35 21 12 6 2 6 6 9 6 10 9 5 9 8 10 29 11 7 9 8 8 7 9 5 14 3 7 7 4 2 5 15 13 11 20 34
59 71 64 42 60 68 61 59 54 50 47 38 31 22 8 5 9 6 6 3 4 3 9 7 7 14 14 6 8 7 4 8 13 21 4 5 8 7 9 10 9 7 10 19 5 19 41
57 55 63 62 57 55 67 64 59 55 50 43 34 28 16 6 7 12 5 5 3 1 4 7 13 10 16 5 7 5 1 4 5 5 12 10 9 9 6 3 10 6 37 4 10 2 22
66 67 64 63 59 60 65 69 65 61 56 48 41 31 26 9 11 10 8 6 3 2 4 6 4 7 8 8 5 5 5 6 2 5 5 2 4 2 3 8 8 34 6 12 6 6 6
75 70 69 61 63 58 72 74 74 68 61 54 47 39 32 14 7 11 11 9 6 6 1 7 7 1 6 7 2 5 3 2 5 2 1 2 9 6 9 8 4 10 15 11 10 6 1
Wind_Direction_850mb
268 295 302 308 343 356 11 7 3 356 352 348 347 349 349 351 348 346 342 336 335 332 329 330 331 336 354 92 56 1 346 330 317 318 312 298 304 272 238 253 285 247 260 264 270 289 287
267 274 281 292 306 334 346 355 351 348 342 343 342 346 348 349 346 344 341 336 336 333 331 330 338 348 5 101 353 344 343 328 316 310 301 286 274 288 270 232 206 242 273 278 288 281 273
258 267 270 282 291 303 319 337 341 339 341 340 341 344 348 347 344 342 344 338 334 334 335 345 340 349 143 93 348 336 336 333 328 312 303 302 287 257 252 274 277 276 282 284 266 263 257
255 257 266 274 279 291 302 317 334 336 337 337 340 344 347 343 342 343 345 340 332 335 343 345 350 340 119 360 350 340 332 330 329 313 303 305 282 261 241 261 290 281 255 283 136 181 246
253 256 261 266 270 283 295 309 328 328 332 336 340 343 344 342 342 343 344 344 335 343 340 354 1 356 76 350 340 349 344 333 324 333 317 297 290 238 231 257 298 195 267 264 294 239 252
253 254 258 263 269 278 289 304 318 323 328 334 338 342 344 342 341 341 345 347 338 358 1 10 1 359 1 331 335 352 354 339 319 325 319 308 259 250 296 132 276 287 287 284 283 282 270
252 256 257 261 266 273 282 295 307 315 325 330 337 341 345 342 342 342 346 356 354 312 14 14 354 278 300 334 338 0 358 338 324 302 321 307 295 253 274 244 257 273 281 284 280 283 279
251 258 256 256 262 268 275 288 302 314 321 326 334 342 344 343 341 345 346 26 18 321 316 326 332 331 331 326 319 355 355 354 339 318 313 330 256 270 287 283 285 283 282 280 282 284 276
248 255 254 254 258 265 274 284 297 311 315 324 336 340 344 344 341 344 357 10 4 327 287 314 329 328 344 328 309 343 354 335 293 318 319 265 274 311 333 314 291 282 271 282 279 307 262
249 247 251 254 256 262 268 277 291 303 310 322 334 340 343 348 345 346 353 353 354 41 58 314 350 360 349 338 308 352 354 339 341 311 317 271 286 321 316 307 350 301 312 291 288 306 296
244 238 244 249 253 257 263 273 286 297 307 318 330 338 342 349 339 345 343 344 354 352 31 318 334 350 354 57 302 330 354 352 329 311 49 274 310 331 313 327 332 267 292 284 278 270 289
252 239 240 245 249 253 260 268 277 289 302 315 327 334 341 339 339 341 344 344 359 39 305 341 355 349 5 334 334 325 356 5 329 324 238 292 298 5 277 317 301 275 294 294 269 243 250
260 248 238 240 244 248 255 261 271 285 299 311 324 332 337 333 337 339 342 349 31 93 359 315 331 351 346 313 310 18 353 19 31 358 348 330 334 314 322 329 319 333 335 314 349 8 228
250 253 245 240 240 244 251 256 268 281 294 306 323 329 331 325 337 339 340 48 56 239 248 339 331 320 358 344 341 341 8 360 46 6 320 6 329 19 319 262 309 321 332 319 310 313 313
245 252 248 253 238 240 247 253 262 274 288 307 319 328 327 327 335 340 353 47 199 205 267 329 322 17 321 346 313 358 12 323 43 360 2 327 281 269 295 311 31 317 337 304 254 259 238
241 247 249 256 242 233 241 247 255 271 289 307 322 330 321 333 340 343 66 222 191 234 2 53 325 90 307 322 353 4 351 325 350 3 344 287 295 316 311 10 23 346 348 348 339 316 325
235 240 246 243 249 235 236 243 251 264 286 311 328 338 337 340 343 14 107 222 261 278 107 123 248 299 274 303 314 316 298 307 24 316 322 295 185 297 11 9 345 6 358 316 290 272 336
234 237 237 241 239 240 237 237 245 259 282 307 335 4 334 348 8 50 113 188 261 322 95 288 229 226 208 313 316 301 304 276 348 329 334 333 273 289 256 270 14 29 2 337 264 28 320
232 233 235 236 236 232 232 231 236 246 265 301 318 293 340 3 87 325 316 283 267 80 256 248 276 177 95 265 348 243 288 272 349 334 336 352 331 329 349 334 10 21 11 6 358 354 14
230 232 232 230 230 230 227 229 230 230 246 280 322 5 26 65 83 121 106 319 321 284 259 238 267 48 26 1 290 291 306 314 333 340 358 1 295 309 294 263 325 10 17 21 24 26 319
241 237 232 227 223 221 225 223 224 222 218 237 29 198 138 316 11 93 104 153 320 5 234 223 294 168 153 332 314 286 286 303 327 4 359 46 325 335 280 235 289 23 20 20 28 8 37
244 238 237 227 221 215 216 223 217 215 210 211 214 179 127 99 101 121 285 238 271 303 222 273 173 191 191 190 188 270 349 346 327 332 343 4 317 6 295 309 278 5 22 23 23 12 8
235 223 235 230 218 213 211 216 218 209 204 201 205 210 222 83 92 79 219 179 214 158 239 245 256 140 187 234 240 268 268 265 277 307 327 344 327 7 310 334 345 356 10 15 32 30 341
226 229 234 228 220 214 209 211 215 209 209 216 204 184 162 273 121 214 193 201 225 218 245 298 278 154 220 303 306 88 168 235 249 273 248 306 332 58 284 356 37 354 20 348 14 31 20
217 219 241 222 224 215 209 209 211 202 210 216 215 208 203 188 209 241 222 231 280 271 237 247 277 274 307 314 52 29 348 25 322 272 303 206 296 52 65 50 204 9 4 350 360 29 18
220 223 219 229 236 220 210 208 209 203 202 215 216 215 216 147 244 177 156 190 242 294 335 245 288 320 349 55 61 87 40 214 327 340 270 47 47 92 29 79 26 242 328 317 261 40 17
227 218 225 216 224 231 217 209 208 205 203 209 215 210 210 227 199 176 161 175 187 123 215 308 336 354 11 33 63 98 225 208 37 3 330 345 8 71 23 73 292 280 317 344 58 231 19
225 221 224 220 222 227 219 212 208 204 207 208 208 210 206 217 191 199 193 172 213 229 134 342 16 6 39 56 105 216 121 212 77 235 151 27 14 316 75 52 344 357 338 101 177 114 34
221 225 221 219 221 222 221 216 208 205 208 208 203 205 207 220 160 201 201 214 221 233 320 18 110 57 125 88 15 95 90 70 147 263 263 346 172 185 171 204 260 360 79 106 134 168 144